KC8UZG Weather Reports


Display with metric or nautical units.
time (UTC)temp
F
wind
direction
speed
MPH
gust
MPH
rain 1hr
in
rain 24hr
in
rain mn
in
humidity
%
barometer
mb
20260508224528 60 219 0.0 0.0 0.00 0.00 0.00 77 1008.7
20260508223535 61 204 0.0 0.0 0.00 0.00 0.00 76 1008.7
20260508222541 61 203 0.0 0.0 0.00 0.00 0.00 76 1008.7
20260508221519 61 241 0.0 0.0 0.00 0.00 0.00 73 1008.7
20260508220525 62 257 0.0 0.0 0.00 0.00 0.00 70 1008.7
20260508215532 63 242 0.0 0.0 0.00 0.00 0.00 66 1008.7
20260508214538 63 227 0.0 0.0 0.00 0.00 0.00 64 1008.7
20260508213516 63 231 0.0 0.0 0.00 0.00 0.00 64 1008.9
20260508212522 63 269 0.0 0.0 0.00 0.00 0.00 63 1009.0
20260508211528 64 265 0.0 0.0 0.00 0.00 0.00 62 1009.0
20260508210535 64 253 0.0 0.0 0.00 0.00 0.00 61 1009.0
20260508205540 64 243 0.0 0.0 0.00 0.00 0.00 61 1009.1
20260508204519 64 247 0.0 5.0 0.00 0.00 0.00 60 1009.4
20260508203525 64 270 0.0 5.0 0.00 0.00 0.00 59 1009.4
20260508202531 64 280 1.0 5.0 0.00 0.00 0.00 59 1009.5
20260508201537 64 273 1.0 5.0 0.00 0.00 0.00 58 1009.7
20260508200517 65 259 0.0 2.0 0.00 0.00 0.00 57 1009.7
20260508195522 65 253 1.0 8.0 0.00 0.00 0.00 56 1009.7
20260508194529 65 259 2.0 10.0 0.00 0.00 0.00 54 1010.0
20260508193535 65 254 3.0 13.0 0.00 0.00 0.00 54 1009.7
20260508192540 66 267 4.0 10.0 0.00 0.00 0.00 53 1010.1
20260508191520 67 259 3.0 13.0 0.00 0.00 0.00 55 1010.1
20260508190525 67 239 1.0 8.0 0.00 0.00 0.00 53 1010.3
20260508185531 67 242 1.0 10.0 0.00 0.00 0.00 53 1010.4
20260508184537 67 236 2.0 10.0 0.00 0.00 0.00 53 1010.5
20260508183516 66 251 2.0 8.0 0.00 0.00 0.00 54 1010.4
20260508182522 66 263 4.0 10.0 0.00 0.00 0.00 55 1010.7
20260508181528 66 262 4.0 15.0 0.00 0.00 0.00 56 1010.8
20260508180535 66 267 1.0 8.0 0.00 0.00 0.00 57 1010.9
20260508175540 65 264 1.0 8.0 0.00 0.00 0.00 59 1011.1
20260508174519 65 261 1.0 10.0 0.00 0.00 0.00 58 1011.2
20260508173525 65 250 2.0 8.0 0.00 0.00 0.00 58 1011.4
20260508172531 65 239 1.0 5.0 0.00 0.00 0.00 58 1011.5
20260508171537 66 256 1.0 5.0 0.00 0.00 0.00 57 1011.7
20260508170516 66 268 2.0 15.0 0.00 0.00 0.00 57 1011.8
20260508165522 66 267 3.0 10.0 0.00 0.00 0.00 56 1011.9
20260508164527 67 262 3.0 13.0 0.00 0.00 0.00 56 1012.2
20260508163534 66 280 3.0 10.0 0.00 0.00 0.00 57 1012.2
20260508162540 66 262 3.0 15.0 0.00 0.00 0.00 56 1012.4
20260508161519 65 266 4.0 13.0 0.00 0.00 0.00 58 1012.4
20260508160525 65 268 1.0 10.0 0.00 0.00 0.00 59 1012.2
20260508155531 65 253 2.0 10.0 0.00 0.00 0.00 58 1012.4
20260508154537 64 264 2.0 13.0 0.00 0.00 0.00 59 1012.5
20260508153516 63 269 2.0 10.0 0.00 0.00 0.00 60 1012.5
20260508152522 64 249 3.0 13.0 0.00 0.00 0.00 60 1012.6
20260508151528 62 268 3.0 13.0 0.00 0.00 0.00 60 1012.9
20260508150534 61 226 1.0 8.0 0.00 0.00 0.00 61 1012.9
20260508145540 60 267 4.0 10.0 0.00 0.00 0.00 61 1012.9
20260508144519 60 266 1.0 10.0 0.00 0.00 0.00 63 1012.9
20260508143525 59 271 2.0 8.0 0.00 0.00 0.00 63 1012.9
20260508142531 59 271 3.0 10.0 0.00 0.00 0.00 62 1013.1
20260508141537 59 257 4.0 13.0 0.00 0.00 0.00 62 1012.9
20260508140516 58 279 3.0 15.0 0.00 0.00 0.00 63 1013.2
20260508135521 59 266 2.0 8.0 0.00 0.00 0.00 63 1013.2
20260508134527 58 263 3.0 10.0 0.00 0.00 0.00 63 1013.2
20260508133534 57 253 2.0 10.0 0.00 0.00 0.00 64 1013.2
20260508132539 57 276 1.0 8.0 0.00 0.00 0.00 67 1013.2
20260508131519 56 270 1.0 8.0 0.00 0.00 0.00 68 1013.2
20260508130524 55 264 1.0 8.0 0.00 0.00 0.00 68 1013.1
20260508125530 54 248 0.0 5.0 0.00 0.00 0.00 70 1012.9
20260508124537 54 248 0.0 2.0 0.00 0.00 0.00 72 1012.9
20260508123515 52 267 0.0 2.0 0.00 0.00 0.00 73 1013.1
20260508122522 51 253 0.0 0.0 0.00 0.00 0.00 76 1012.9
20260508121527 50 273 1.0 5.0 0.00 0.00 0.00 76 1012.9
20260508120534 50 255 0.0 5.0 0.00 0.00 0.00 77 1012.9
20260508115539 50 255 0.0 0.0 0.00 0.00 0.00 78 1012.9
20260508114518 48 253 0.0 0.0 0.00 0.00 0.00 79 1012.6
20260508113524 48 248 0.0 0.0 0.00 0.00 0.00 80 1012.5
20260508112530 47 232 0.0 0.0 0.00 0.00 0.00 84 1012.5
20260508111535 46 224 0.0 0.0 0.00 0.00 0.00 85 1012.5
20260508110515 46 228 0.0 0.0 0.00 0.00 0.00 85 1012.5
20260508105521 45 234 0.0 0.0 0.00 0.00 0.00 86 1012.5
20260508104527 45 198 0.0 0.0 0.00 0.00 0.00 86 1012.5
20260508103535 45 200 0.0 0.0 0.00 0.00 0.00 85 1012.5
20260508102539 45 224 0.0 0.0 0.00 0.00 0.00 84 1012.5
20260508101518 46 243 0.0 0.0 0.00 0.00 0.00 84 1012.2
20260508100524 46 226 0.0 0.0 0.00 0.00 0.00 83 1012.2
20260508095530 45 211 0.0 0.0 0.00 0.00 0.00 83 1012.5
20260508094536 46 216 0.0 0.0 0.00 0.00 0.00 82 1012.5
20260508093515 46 247 0.0 0.0 0.00 0.00 0.00 82 1012.5
20260508092522 45 242 0.0 0.0 0.00 0.00 0.00 82 1012.5
20260508091527 45 243 0.0 0.0 0.00 0.00 0.00 81 1012.5
20260508090533 45 241 0.0 0.0 0.00 0.00 0.00 82 1012.5
20260508085539 45 248 0.0 0.0 0.00 0.00 0.00 81 1012.6
20260508084518 45 247 0.0 0.0 0.00 0.00 0.00 80 1012.5
20260508083524 45 245 0.0 0.0 0.00 0.00 0.00 81 1012.5
20260508082532 45 237 0.0 0.0 0.00 0.00 0.00 80 1012.5
20260508081538 45 250 0.0 0.0 0.00 0.00 0.00 80 1012.5
20260508080516 45 257 0.0 0.0 0.00 0.00 0.00 79 1012.5
20260508075521 46 250 0.0 0.0 0.00 0.00 0.00 78 1012.5
20260508074526 46 251 0.0 0.0 0.00 0.00 0.00 78 1012.5
20260508073533 46 252 0.0 0.0 0.00 0.00 0.00 77 1012.5
20260508072539 46 247 0.0 0.0 0.00 0.00 0.00 77 1012.5
20260508071518 47 249 0.0 0.0 0.00 0.00 0.00 76 1012.8
20260508070524 47 253 0.0 0.0 0.00 0.00 0.00 75 1012.9
20260508065529 47 252 0.0 0.0 0.00 0.00 0.00 75 1012.9
20260508064536 47 264 0.0 0.0 0.00 0.00 0.00 74 1012.9
20260508063515 47 252 0.0 0.0 0.00 0.00 0.00 74 1013.0
20260508062521 48 228 0.0 0.0 0.00 0.00 0.00 73 1013.2
20260508061526 48 248 0.0 0.0 0.00 0.00 0.00 73 1013.1
20260508060533 48 249 0.0 0.0 0.00 0.00 0.00 72 1012.9
20260508055539 48 236 0.0 2.0 0.00 0.00 0.00 71 1013.1
20260508054517 49 259 0.0 0.0 0.00 0.00 0.00 71 1013.1
20260508053524 49 256 0.0 0.0 0.00 0.00 0.00 71 1013.2
20260508052530 49 261 0.0 0.0 0.00 0.00 0.00 71 1013.2
20260508051537 48 256 0.0 0.0 0.00 0.00 0.00 72 1013.2
20260508050514 48 266 0.0 0.0 0.00 0.00 0.00 72 1013.2
20260508045520 48 256 0.0 0.0 0.00 0.00 0.00 73 1013.2
20260508044526 49 245 0.0 2.0 0.00 0.00 0.00 72 1013.2
20260508043535 48 251 0.0 0.0 0.00 0.00 0.00 74 1013.2
20260508042538 49 243 0.0 0.0 0.00 0.00 0.00 75 1013.2
20260508041518 49 250 0.0 0.0 0.00 0.00 0.00 75 1013.2
20260508040523 49 229 0.0 0.0 0.00 0.00 0.00 74 1013.2
20260508035529 50 245 0.0 0.0 0.00 0.00 0.00 70 1013.2
20260508034536 50 245 0.0 0.0 0.00 0.00 0.00 70 1013.2
20260508033542 51 260 0.0 0.0 0.00 0.00 0.00 68 1013.3
20260508032521 51 247 0.0 0.0 0.00 0.00 0.00 67 1013.2
20260508031526 51 246 0.0 0.0 0.00 0.00 0.00 66 1013.2
20260508030533 52 263 0.0 0.0 0.00 0.00 0.00 66 1013.3
20260508025539 52 251 0.0 0.0 0.00 0.00 0.00 66 1013.5
20260508024518 51 250 0.0 0.0 0.00 0.00 0.00 68 1013.2
20260508023523 50 253 0.0 0.0 0.00 0.00 0.00 72 1013.2
20260508022529 49 206 0.0 0.0 0.00 0.00 0.00 78 1013.2
20260508021535 50 265 0.0 0.0 0.00 0.00 0.00 75 1013.2
20260508020541 50 242 0.0 0.0 0.00 0.00 0.00 71 1012.9
20260508015521 50 223 0.0 0.0 0.00 0.00 0.00 72 1012.9
20260508014527 51 208 0.0 0.0 0.00 0.00 0.00 72 1012.9
20260508013533 51 227 0.0 0.0 0.00 0.00 0.00 69 1013.2
20260508012538 51 225 0.0 0.0 0.00 0.00 0.00 69 1013.0
20260508011517 51 224 0.0 0.0 0.00 0.00 0.00 69 1012.9
20260508010523 51 227 0.0 0.0 0.00 0.00 0.00 66 1013.1
20260508005529 52 205 0.0 0.0 0.00 0.00 0.00 65 1013.1
20260508004535 52 257 0.0 0.0 0.00 0.00 0.00 67 1013.2
20260508003542 52 289 0.0 0.0 0.00 0.00 0.00 65 1013.1
20260508002520 53 288 0.0 0.0 0.00 0.00 0.00 66 1013.0
20260508001526 54 267 0.0 0.0 0.00 0.00 0.00 63 1012.9
20260508000532 55 233 0.0 0.0 0.00 0.00 0.00 55 1012.9
20260507235539 56 246 0.0 0.0 0.00 0.00 0.00 53 1012.8
20260507234517 57 244 0.0 0.0 0.00 0.00 0.00 53 1012.7
20260507233523 57 248 0.0 0.0 0.00 0.00 0.00 53 1012.8
20260507232529 57 275 0.0 2.0 0.00 0.00 0.00 51 1012.8
20260507231535 57 261 0.0 0.0 0.00 0.00 0.00 52 1013.0
20260507230541 58 248 0.0 0.0 0.00 0.00 0.00 48 1012.7
20260507225520 58 262 0.0 0.0 0.00 0.00 0.00 49 1012.9